H1 CPF 2 NER 2024 6 11 9 163 01 glonass145 H2 2213001 9145 54031 2024 6 11 0 0 0 2024 6 14 23 45 0 900 1 1 0 0 0 1 H9 10 0 60472 0.00000 0 -6392553.934 -24180209.542 4956882.682 10 0 60472 900.00000 0 -6615696.271 -24559600.255 1777996.796 10 0 60472 1800.00000 0 -6762222.757 -24541990.968 -1435473.690 10 0 60472 2700.00000 0 -6778633.410 -24141229.609 -4621018.934 10 0 60472 3600.00000 0 -6616053.731 -23383725.658 -7716674.302 10 0 60472 4500.00000 0 -6232550.719 -22307287.084 -10662232.645 10 0 60472 5400.00000 0 -5595159.338 -20959496.899 -13400421.163 10 0 60472 6300.00000 0 -4681532.573 -19395698.408 -15878019.246 10 0 60472 7200.00000 0 -3481144.380 -17676674.686 -18046895.069 10 0 60472 8100.00000 0 -1995993.921 -15866120.517 -19864940.628 10 0 60472 9000.00000 0 -240780.601 -14028013.387 -21296887.174 10 0 60472 9900.00000 0 1757458.101 -12223994.086 -22314985.599 10 0 60472 10800.00000 0 3960231.481 -10510866.517 -22899539.172 10 0 60472 11700.00000 0 6318966.753 -8938320.955 -23039279.022 10 0 60472 12600.00000 0 8776809.769 -7546975.182 -22731575.792 10 0 60472 13500.00000 0 11270780.886 -6366814.379 -21982484.060 10 0 60472 14400.00000 0 13734196.790 -5416093.691 -20806619.180 10 0 60472 15300.00000 0 16099258.131 -4700747.985 -19226869.269 10 0 60472 16200.00000 0 18299695.944 -4214332.055 -17273948.100 10 0 60472 17100.00000 0 20273367.448 -3938492.378 -14985797.521 10 0 60472 18000.00000 0 21964693.741 -3843949.374 -12406850.861 10 0 60472 18900.00000 0 23326838.521 -3891947.788 -9587171.379 10 0 60472 19800.00000 0 24323537.570 -4036113.295 -6581482.180 10 0 60472 20700.00000 0 24930503.193 -4224636.401 -3448106.256 10 0 60472 21600.00000 0 25136345.466 -4402691.025 -247837.007 10 0 60472 22500.00000 0 24942972.225 -4514985.264 2957238.946 10 0 60472 23400.00000 0 24365451.455 -4508336.311 6104943.820 10 0 60472 24300.00000 0 23431342.189 -4334160.442 9134212.328 10 0 60472 25200.00000 0 22179522.153 -3950772.578 11986273.629 10 0 60472 26100.00000 0 20658561.415 -3325397.893 14605788.675 10 0 60472 27000.00000 0 18924710.126 -2435810.029 16941921.102 10 0 60472 27900.00000 0 17039584.441 -1271526.095 18949321.120 10 0 60472 28800.00000 0 15067647.171 165492.859 20589003.629 10 0 60472 29700.00000 0 13073588.095 1860666.557 21829103.901 10 0 60472 30600.00000 0 11119712.851 3787154.267 22645496.478 10 0 60472 31500.00000 0 9263448.938 5906734.207 23022265.532 10 0 60472 32400.00000 0 7555072.314 8171168.573 22952017.638 10 0 60472 33300.00000 0 6035748.923 10523998.914 22436030.780 10 0 60472 34200.00000 0 4735972.417 12902698.554 21484236.364 10 0 60472 35100.00000 0 3674462.852 15241093.712 20115034.021 10 0 60472 36000.00000 0 2857572.014 17471953.514 18354942.088 10 0 60472 36900.00000 0 2279219.898 19529641.623 16238089.727 10 0 60472 37800.00000 0 1921364.648 21352719.237 13805559.765 10 0 60472 38700.00000 0 1754985.787 22886390.793 11104594.284 10 0 60472 39600.00000 0 1741538.885 24084689.875 8187677.940 10 0 60472 40500.00000 0 1834819.701 24912313.373 5111516.623 10 0 60472 41400.00000 0 1983158.323 25346026.550 1935931.377 10 0 60472 42300.00000 0 2131849.604 25375579.529 -1277310.426 10 0 60472 43200.00000 0 2225715.975 25004096.443 -4465703.265 10 0 60472 44100.00000 0 2211692.930 24247920.731 -7567226.670 10 0 60472 45000.00000 0 2041326.469 23135923.211 -10521558.634 10 0 60472 45900.00000 0 1673075.553 21708302.399 -13271254.813 10 0 60472 46800.00000 0 1074321.020 20014928.002 -15762869.834 10 0 60472 47700.00000 0 222995.001 18113297.785 -17947998.394 10 0 60472 48600.00000 0 -891238.830 16066194.210 -19784215.743 10 0 60472 49500.00000 0 -2266304.669 13939139.522 -21235899.381 10 0 60472 50400.00000 0 -3887562.991 11797756.192 -22274916.389 10 0 60472 51300.00000 0 -5728194.860 9705143.099 -22881163.642 10 0 60472 52200.00000 0 -7750106.631 7719376.730 -23042951.160 10 0 60472 53100.00000 0 -9905317.692 5891241.087 -22757221.875 10 0 60472 54000.00000 0 -12137773.818 4262280.020 -22029604.273 10 0 60472 54900.00000 0 -14385511.076 2863251.981 -20874297.409 10 0 60472 55800.00000 0 -16583080.566 1713050.249 -19313790.898 10 0 60472 56700.00000 0 -18664133.598 818132.154 -17378425.482 10 0 60472 57600.00000 0 -20564060.100 172479.556 -15105802.667 10 0 60472 58500.00000 0 -22222570.832 -241909.262 -12540054.726 10 0 60472 59400.00000 0 -23586116.180 -454018.346 -9730989.011 10 0 60472 60300.00000 0 -24610041.041 -502346.704 -6733122.860 10 0 60472 61200.00000 0 -25260386.109 -433037.582 -3604627.653 10 0 60472 62100.00000 0 -25515260.581 -297683.959 -406202.277 10 0 60472 63000.00000 0 -25365729.090 -150903.481 2800102.227 10 0 60472 63900.00000 0 -24816175.875 -47785.605 5952084.062 10 0 60472 64800.00000 0 -23884131.069 -41319.202 8988594.823 10 0 60472 65700.00000 0 -22599566.363 -179909.570 11850723.097 10 0 60472 66600.00000 0 -21003689.470 -505090.058 14482934.563 10 0 60472 67500.00000 0 -19147287.670 -1049525.355 16834146.678 10 0 60472 68400.00000 0 -17088689.396 -1835391.197 18858717.337 10 0 60472 69300.00000 0 -14891428.665 -2873199.518 20517328.631 10 0 60472 70200.00000 0 -12621709.345 -4161119.469 21777748.925 10 0 60472 71100.00000 0 -10345774.448 -5684824.073 22615458.814 10 0 60472 72000.00000 0 -8127289.463 -7417870.353 23014129.050 10 0 60472 72900.00000 0 -6024848.093 -9322598.632 22965941.259 10 0 60472 73800.00000 0 -4089703.609 -11351515.028 22471745.146 10 0 60472 74700.00000 0 -2363819.737 -13449100.968 21541048.763 10 0 60472 75600.00000 0 -878321.741 -15553975.596 20191841.536 10 0 60472 76500.00000 0 347588.190 -17601321.999 18450252.728 10 0 60472 77400.00000 0 1307206.440 -19525476.767 16350051.173 10 0 60472 78300.00000 0 2006370.720 -21262575.167 13931995.210 10 0 60472 79200.00000 0 2462968.847 -22753141.455 11243044.684 10 0 60472 80100.00000 0 2705934.756 -23944515.644 8335449.893 10 0 60472 81000.00000 0 2773774.709 -24793014.530 5265734.914 10 0 60472 81900.00000 0 2712686.708 -25265735.693 2093595.168 10 0 60472 82800.00000 0 2574353.508 -25341927.973 -1119268.900 10 0 60472 83700.00000 0 2413503.667 -25013870.220 -4310358.705 10 0 60472 84600.00000 0 2285345.062 -24287220.860 -7417600.609 10 0 60472 85500.00000 0 2242980.784 -23180823.334 -10380560.480 10 0 60473 0.00000 0 2334918.019 -21725975.698 -13141624.944 10 0 60473 900.00000 0 2602776.586 -19965194.435 -15647127.087 10 0 60473 1800.00000 0 3079294.851 -17950526.777 -17848390.504 10 0 60473 2700.00000 0 3786718.321 -15741480.126 -19702676.160 10 0 60473 3600.00000 0 4735639.451 -13402657.576 -21174010.023 10 0 60473 4500.00000 0 5924338.155 -11001197.995 -22233877.247 10 0 60473 5400.00000 0 7338651.178 -8604127.761 -22861769.816 10 0 60473 6300.00000 0 8952376.260 -6275734.369 -23045577.728 10 0 60473 7200.00000 0 10728194.501 -4075070.885 -22781816.865 10 0 60473 8100.00000 0 12619072.753 -2053694.297 -22075689.858 10 0 60473 9000.00000 0 14570087.829 -253730.785 -20940979.286 10 0 60473 9900.00000 0 16520596.792 1293652.864 -19399775.670 10 0 60473 10800.00000 0 18406663.151 2569309.564 -17482045.712 10 0 60473 11700.00000 0 20163638.186 3566661.365 -15225049.119 10 0 60473 12600.00000 0 21728790.010 4291716.694 -12672615.198 10 0 60473 13500.00000 0 23043870.947 4762556.274 -9874293.025 10 0 60473 14400.00000 0 24057516.257 5008310.691 -6884391.365 10 0 60473 15300.00000 0 24727374.063 5067673.819 -3760926.797 10 0 60473 16200.00000 0 25021877.534 4987015.673 -564500.234 10 0 60473 17100.00000 0 24921585.153 4818175.020 2642876.498 10 0 60473 18000.00000 0 24420032.884 4616025.472 5798981.243 10 0 60473 18900.00000 0 23524062.418 4435918.265 8842586.045 10 0 60473 19800.00000 0 22253611.524 4331110.042 11714642.271 10 0 60473 20700.00000 0 20640974.992 4350284.561 14359423.392 10 0 60473 21600.00000 0 18729566.661 4535273.236 16725603.404 10 0 60473 22500.00000 0 16572233.805 4919071.060 18767250.228 10 0 60473 23400.00000 0 14229193.671 5524232.029 20444715.091 10 0 60473 24300.00000 0 11765677.612 6361712.322 21725400.998 10 0 60473 25200.00000 0 9249380.210 7430210.810 22584395.732 10 0 60473 26100.00000 0 6747818.881 8716035.696 23004957.322 10 0 60473 27000.00000 0 4325713.010 10193504.198 22978842.699 10 0 60473 27900.00000 0 2042490.880 11825860.002 22506473.044 10 0 60473 28800.00000 0 -49972.615 13566671.512 21596932.330 10 0 60473 29700.00000 0 -1909293.982 15361653.823 20267798.549 10 0 60473 30600.00000 0 -3504114.760 17150839.434 18544810.186 10 0 60473 31500.00000 0 -4815167.314 18871007.799 16461373.623 10 0 60473 32400.00000 0 -5835828.837 20458272.636 14057920.217 10 0 60473 33300.00000 0 -6572140.896 21850718.872 11381124.813 10 0 60473 34200.00000 0 -7042294.326 22990978.447 8483000.362 10 0 60473 35100.00000 0 -7275601.811 23828636.459 5419886.015 10 0 60473 36000.00000 0 -7311002.282 24322365.830 2251348.379 10 0 60473 36900.00000 0 -7195161.184 24441699.895 -960982.229 10 0 60473 37800.00000 0 -6980247.982 24168367.474 -4154617.282 10 0 60473 38700.00000 0 -6721486.108 23497133.473 -7267432.983 10 0 60473 39600.00000 0 -6474580.279 22436109.018 -10238885.861 10 0 60473 40500.00000 0 -6293131.299 21006517.706 -13011196.513 10 0 60473 41400.00000 0 -6226148.894 19241927.593 -15530477.700 10 0 60473 42300.00000 0 -6315768.769 17186981.265 -17747784.314 10 0 60473 43200.00000 0 -6595271.144 14895677.336 -19620064.592 10 0 60473 44100.00000 0 -7087485.045 12429275.586 -21110994.196 10 0 60473 45000.00000 0 -7803646.012 9853913.441 -22191677.285 10 0 60473 45900.00000 0 -8742755.626 7238033.340 -22841201.579 10 0 60473 46800.00000 0 -9891469.947 4649728.001 -23047037.366 10 0 60473 47700.00000 0 -11224521.731 2154113.694 -22805273.456 10 0 60473 48600.00000 0 -12705658.869 -189159.955 -22120686.227 10 0 60473 49500.00000 0 -14289059.960 -2328161.092 -21006640.990 10 0 60473 50400.00000 0 -15921168.046 -4220595.324 -19484827.968 10 0 60473 51300.00000 0 -17542866.065 -5835315.559 -17584838.218 10 0 60473 52200.00000 0 -19091903.402 -7153360.727 -15343587.693 10 0 60473 53100.00000 0 -20505472.327 -8168481.653 -12804600.487 10 0 60473 54000.00000 0 -21722826.803 -8887133.793 -10017164.924 10 0 60473 54900.00000 0 -22687834.261 -9327938.647 -7035378.575 10 0 60473 55800.00000 0 -23351353.583 -9520637.824 -3917100.503 10 0 60473 56700.00000 0 -23673339.674 -9504584.912 -722830.872 10 0 60473 57600.00000 0 -23624586.312 -9326839.570 2485460.495 10 0 60473 58500.00000 0 -23188034.012 -9039944.920 5645533.878 10 0 60473 59400.00000 0 -22359587.738 -8699482.552 8696084.532 10 0 60473 60300.00000 0 -21148409.806 -8361508.679 11577929.302 10 0 60473 61200.00000 0 -19576675.170 -8079979.953 14235152.017 10 0 60473 62100.00000 0 -17678798.725 -7904277.778 16616185.583 10 0 60473 63000.00000 0 -15500166.209 -7876935.740 18674810.054 10 0 60473 63900.00000 0 -13095420.908 -8031666.224 20371047.563 10 0 60473 64800.00000 0 -10526376.740 -8391769.704 21671937.146 10 0 60473 65700.00000 0 -7859643.725 -8968994.198 22552174.745 10 0 60473 66600.00000 0 -5164063.708 -9762893.574 22994606.235 10 0 60473 67500.00000 0 -2508062.012 -10760712.609 22990564.014 10 0 60473 68400.00000 0 42975.826 -11937804.755 22540040.552 10 0 60473 69300.00000 0 2429194.032 -13258566.309 21651695.232 10 0 60473 70200.00000 0 4598520.523 -14677849.078 20342693.813 10 0 60473 71100.00000 0 6508591.680 -16142793.492 18638382.937 10 0 60473 72000.00000 0 8128268.327 -17595006.273 16571805.201 10 0 60473 72900.00000 0 9438680.192 -18972991.990 14183063.390 10 0 60473 73800.00000 0 10433755.719 -20214736.816 11518545.470 10 0 60473 74700.00000 0 11120215.567 -21260335.884 8630024.913 10 0 60473 75600.00000 0 11517030.702 -22054553.413 5573653.558 10 0 60473 76500.00000 0 11654368.661 -22549207.202 2408866.627 10 0 60473 77400.00000 0 11572073.254 -22705276.170 -802778.409 10 0 60473 78300.00000 0 11317742.951 -22494641.198 -3998805.873 10 0 60473 79200.00000 0 10944490.259 -21901384.893 -7117044.604 10 0 60473 80100.00000 0 10508478.100 -20922594.656 -10096844.561 10 0 60473 81000.00000 0 10066338.588 -19568634.496 -12880262.769 10 0 60473 81900.00000 0 9672584.549 -17862873.673 -15413194.736 10 0 60473 82800.00000 0 9377124.207 -15840883.241 -17646428.816 10 0 60473 83700.00000 0 9222984.827 -13549134.078 -19536602.726 10 0 60473 84600.00000 0 9244341.955 -11043250.876 -21047043.777 10 0 60473 85500.00000 0 9464937.657 -8385895.106 -22148476.763 10 0 60474 0.00000 0 9896954.432 -5644365.472 -22819586.378 10 0 60474 900.00000 0 10540392.407 -2888014.125 -23047424.217 10 0 60474 1800.00000 0 11382975.242 -185589.479 -22827652.445 10 0 60474 2700.00000 0 12400589.308 2397389.465 -22164621.314 10 0 60474 3600.00000 0 13558237.114 4801115.425 -21071278.623 10 0 60474 4500.00000 0 14811465.171 6973731.183 -19568913.691 10 0 60474 5400.00000 0 16108206.459 8873232.035 -17686740.967 10 0 60474 6300.00000 0 17390960.457 10468954.651 -15461331.304 10 0 60474 7200.00000 0 18599219.490 11742591.872 -12935901.848 10 0 60474 8100.00000 0 19672039.855 12688692.687 -10159478.044 10 0 60474 9000.00000 0 20550650.067 13314628.014 -7185943.750 10 0 60474 9900.00000 0 21180986.816 13640025.160 -4072997.656 10 0 60474 10800.00000 0 21516052.183 13695695.928 -881036.041 10 0 60474 11700.00000 0 21517993.027 13522104.513 2328016.589 10 0 60474 12600.00000 0 21159814.917 13167440.517 5491906.336 10 0 60474 13500.00000 0 20426658.297 12685378.907 8549255.006 10 0 60474 14400.00000 0 19316582.748 12132621.796 11440748.127 10 0 60474 15300.00000 0 17840825.805 11566326.000 14110282.874 10 0 60474 16200.00000 0 16023524.691 11041524.989 16506053.795 10 0 60474 17100.00000 0 13900911.643 10608654.020 18581555.503 10 0 60474 18000.00000 0 11520015.499 10311282.772 20296483.146 10 0 60474 18900.00000 0 8936922.570 10184151.096 21617513.552 10 0 60474 19800.00000 0 6214668.145 10251590.712 22518952.221 10 0 60474 20700.00000 0 3420845.210 10526399.596 22983233.861 10 0 60474 21600.00000 0 625028.678 11009216.879 23001266.889 10 0 60474 22500.00000 0 -2103878.947 11688425.231 22572615.131 10 0 60474 23400.00000 0 -4700271.145 12540585.683 21705512.926 10 0 60474 24300.00000 0 -7104322.057 13531387.585 20416712.816 10 0 60474 25200.00000 0 -9264229.677 14617074.806 18731168.097 10 0 60474 26100.00000 0 -11138124.769 15746289.097 16681555.599 10 0 60474 27000.00000 0 -12695566.414 16862253.878 14307647.133 10 0 60474 27900.00000 0 -13918562.213 17905207.003 11655541.076 10 0 60474 28800.00000 0 -14802070.833 18814980.190 8776768.480 10 0 60474 29700.00000 0 -15353966.357 19533616.200 5727290.798 10 0 60474 30600.00000 0 -15594466.540 20007912.839 2566408.724 10 0 60474 31500.00000 0 -15555049.750 20191785.638 -644396.241 10 0 60474 32400.00000 0 -15276907.202 20048348.442 -3842664.354 10 0 60474 33300.00000 0 -14808996.825 19551623.057 -6966180.068 10 0 60474 34200.00000 0 -14205782.181 18687804.710 -9954189.603 10 0 60474 35100.00000 0 -13524753.129 17456029.038 -12748589.019 10 0 60474 36000.00000 0 -12823834.190 15868607.493 -15295058.940 10 0 60474 36900.00000 0 -12158791.121 13950720.674 -17544123.224 10 0 60474 37800.00000 0 -11580745.949 11739582.013 -19452110.799 10 0 60474 38700.00000 0 -11133905.883 9283106.583 -20982002.004 10 0 60474 39600.00000 0 -10853602.027 6638140.488 -22104143.319 10 0 60474 40500.00000 0 -10764720.489 3868324.560 -22796817.205 10 0 60474 41400.00000 0 -10880591.607 1041681.063 -23046656.704 10 0 60474 42300.00000 0 -11202383.621 -1771976.508 -22848897.530 10 0 60474 43200.00000 0 -11719025.755 -4503703.469 -22207463.489 10 0 60474 44100.00000 0 -12407663.500 -7088044.161 -21134884.169 10 0 60474 45000.00000 0 -13234626.602 -9465504.395 -19652046.912 10 0 60474 45900.00000 0 -14156868.831 -11584774.664 -17787788.109 10 0 60474 46800.00000 0 -15123818.968 -13404612.959 -15578331.740 10 0 60474 47700.00000 0 -16079565.218 -14895310.222 -13066585.936 10 0 60474 48600.00000 0 -16965281.327 -16039678.812 -10301310.981 10 0 60474 49500.00000 0 -17721792.528 -16833524.128 -7336174.572 10 0 60474 50400.00000 0 -18292173.428 -17285581.042 -4228712.461 10 0 60474 51300.00000 0 -18624268.586 -17416919.003 -1039214.409 10 0 60474 52200.00000 0 -18673029.599 -17259841.922 2170443.088 10 0 60474 53100.00000 0 -18402570.123 -16856329.911 5337994.678 10 0 60474 54000.00000 0 -17787851.987 -16256089.178 8401991.459 10 0 60474 54900.00000 0 -16815930.956 -15514292.641 11302990.356 10 0 60474 55800.00000 0 -15486709.091 -14689106.774 13984704.535 10 0 60474 56700.00000 0 -13813161.223 -13839108.967 16395092.678 10 0 60474 57600.00000 0 -11821025.023 -13020704.198 18487366.231 10 0 60474 58500.00000 0 -9547966.426 -12285649.691 20220895.336 10 0 60474 59400.00000 0 -7042254.008 -11678791.612 21561996.242 10 0 60474 60300.00000 0 -4360996.187 -11236108.895 22484585.245 10 0 60474 61200.00000 0 -1568013.346 -10983146.423 22970686.730 10 0 60474 62100.00000 0 1268568.004 -10933903.523 23010785.577 10 0 60474 63000.00000 0 4078900.304 -11090224.738 22604017.045 10 0 60474 63900.00000 0 6794072.965 -11441718.910 21758190.169 10 0 60474 64800.00000 0 9348733.918 -11966210.529 20489643.700 10 0 60474 65700.00000 0 11683566.510 -12630705.053 18822936.719 10 0 60474 66600.00000 0 13747519.279 -13392828.223 16790379.121 10 0 60474 67500.00000 0 15499696.169 -14202679.393 14431410.276 10 0 60474 68400.00000 0 16910828.672 -15005021.153 11791837.165 10 0 60474 69300.00000 0 17964268.593 -15741713.095 8922946.284 10 0 60474 70200.00000 0 18656460.179 -16354286.819 5880506.236 10 0 60474 71100.00000 0 18996872.206 -16786552.982 2723680.442 10 0 60474 72000.00000 0 19007393.380 -16987129.453 -486128.536 10 0 60474 72900.00000 0 18721217.249 -16911782.736 -3686479.970 10 0 60474 73800.00000 0 18181264.504 -16525482.581 -6815117.036 10 0 60474 74700.00000 0 17438210.260 -15804081.807 -9811185.248 10 0 60474 75600.00000 0 16548200.710 -14735549.291 -12616422.599 10 0 60474 76500.00000 0 15570356.642 -13320703.117 -15176297.515 10 0 60474 77400.00000 0 14564170.185 -11573412.175 -17441071.830 10 0 60474 78300.00000 0 13586905.430 -9520257.048 -19366767.880 10 0 60474 79200.00000 0 12691112.989 -7199663.868 -20916020.942 10 0 60474 80100.00000 0 11922363.464 -4660547.004 -22058800.767 10 0 60474 81000.00000 0 11317295.058 -1960516.926 -22772988.782 10 0 60474 81900.00000 0 10902057.040 836272.426 -23044800.471 10 0 60474 82800.00000 0 10691213.870 3661547.535 -22869045.521 10 0 60474 83700.00000 0 10687155.201 6445510.257 -22249221.419 10 0 60474 84600.00000 0 10880035.765 9119496.723 -21197439.314 10 0 60474 85500.00000 0 11248246.822 11618590.573 -19734183.978 10 0 60475 0.00000 0 11759398.705 13884082.804 -17887912.987 10 0 60475 900.00000 0 12371772.900 15865678.285 -15694501.804 10 0 60475 1800.00000 0 13036181.561 17523355.382 -13196548.026 10 0 60475 2700.00000 0 13698156.936 18828806.482 -10442544.716 10 0 60475 3600.00000 0 14300377.784 19766397.549 -7485940.989 10 0 60475 4500.00000 0 14785230.782 20333609.040 -4384106.898 10 0 60475 5400.00000 0 15097398.920 20540940.660 -1197222.643 10 0 60475 6300.00000 0 15186367.695 20411284.976 2012886.525 10 0 60475 7200.00000 0 15008743.265 19978797.009 5183947.133 10 0 60475 8100.00000 0 14530284.548 19287308.012 8254442.891 10 0 60475 9000.00000 0 13727563.173 18388350.599 11164805.337 10 0 60475 9900.00000 0 12589180.739 17338878.619 13858566.663 10 0 60475 10800.00000 0 11116491.323 16198777.815 16283452.480 10 0 60475 11700.00000 0 9323797.821 15028271.920 18392393.593 10 0 60475 12600.00000 0 7238012.643 13885333.118 20144437.356 10 0 60475 13500.00000 0 4897795.532 12823205.425 21505541.324 10 0 60475 14400.00000 0 2352203.001 11888144.736 22449234.122 10 0 60475 15300.00000 0 -341095.843 11117470.165 22957130.927 10 0 60475 16200.00000 0 -3117964.342 10538008.254 23019293.769 10 0 60475 17100.00000 0 -5910216.471 10164995.230 22634429.532 10 0 60475 18000.00000 0 -8648208.882 10001483.452 21809921.614 10 0 60475 18900.00000 0 -11263500.257 10038277.090 20561694.096 10 0 60475 19800.00000 0 -13691468.306 10254400.028 18913910.414 10 0 60475 20700.00000 0 -15873776.130 10618076.640 16898511.583 10 0 60475 21600.00000 0 -17760585.706 11088184.441 14554602.134 10 0 60475 22500.00000 0 -19312426.398 11616117.644 11927694.894 10 0 60475 23400.00000 0 -20501640.532 12147983.024 9068828.783 10 0 60475 24300.00000 0 -21313345.642 12627035.186 6033576.389 10 0 60475 25200.00000 0 -21745873.170 12996247.848 2880960.634 10 0 60475 26100.00000 0 -21810665.434 13200911.649 -327698.069 10 0 60475 27000.00000 0 -21531635.633 13191147.612 -3529981.143 10 0 60475 27900.00000 0 -20944018.482 12924228.796 -6663593.519 10 0 60475 28800.00000 0 -20092760.700 12366610.689 -9667582.880 10 0 60475 29700.00000 0 -19030520.217 11495583.344 -12483531.847 10 0 60475 30600.00000 0 -17815359.440 10300474.319 -15056699.094 10 0 60475 31500.00000 0 -16508230.824 8783350.729 -17337086.580 10 0 60475 32400.00000 0 -15170361.504 6959189.969 -19280411.842 10 0 60475 33300.00000 0 -13860647.668 4855511.237 -20848966.511 10 0 60475 34200.00000 0 -12633168.569 2511482.718 -22012344.615 10 0 60475 35100.00000 0 -11534924.540 -23458.736 -22748027.147 10 0 60475 36000.00000 0 -10603893.599 -2691418.288 -23041812.233 10 0 60475 36900.00000 0 -9867487.459 -5428209.175 -22888083.345 10 0 60475 37800.00000 0 -9341470.767 -8165784.551 -22289911.100 10 0 60475 38700.00000 0 -9029387.785 -10834834.657 -21258987.289 10 0 60475 39600.00000 0 -8922519.459 -13367442.123 -19815392.877 10 0 60475 40500.00000 0 -9000371.570 -15699685.935 -17987204.709 10 0 60475 41400.00000 0 -9231672.537 -17774086.761 -15809948.595 10 0 60475 42300.00000 0 -9575838.151 -19541792.923 -13325909.276 10 0 60475 43200.00000 0 -9984841.035 -20964417.003 -10583310.427 10 0 60475 44100.00000 0 -10405405.707 -22015447.579 -7635380.303 10 0 60475 45000.00000 0 -10781436.473 -22681178.106 -4539320.928 10 0 60475 45900.00000 0 -11056575.570 -22961115.064 -1355200.575 10 0 60475 46800.00000 0 -11176783.473 -22867849.132 1855209.139 10 0 60475 47700.00000 0 -11092832.282 -22426395.527 5029629.031 10 0 60475 48600.00000 0 -10762606.690 -21673031.771 8106477.857 10 0 60475 49500.00000 0 -10153115.066 -20653682.150 11026064.210 10 0 60475 50400.00000 0 -9242125.295 -19421916.983 13731741.717 10 0 60475 51300.00000 0 -8019355.698 -18036650.849 16171005.259 10 0 60475 52200.00000 0 -6487169.982 -16559636.371 18296507.184 10 0 60475 53100.00000 0 -4660745.779 -15052858.556 20066974.040 10 0 60475 54000.00000 0 -2567708.338 -13575938.685 21448006.400 10 0 60475 54900.00000 0 -247243.105 -12183656.206 22412746.597 10 0 60475 55800.00000 0 2251277.420 -10923692.044 22942401.663 10 0 60475 56700.00000 0 4870096.930 -9834687.476 23026611.464 10 0 60475 57600.00000 0 7545235.236 -8944699.475 22663654.871 10 0 60475 58500.00000 0 10208916.427 -8270117.011 21860489.669 10 0 60475 59400.00000 0 12792165.551 -7815083.509 20632624.983 10 0 60475 60300.00000 0 15227466.819 -7571449.639 19003828.018 10 0 60475 61200.00000 0 17451373.401 -7519258.385 17005670.020 10 0 60475 62100.00000 0 19406960.520 -7627742.015 14676919.461 10 0 60475 63000.00000 0 21046019.755 -7856788.919 12062793.466 10 0 60475 63900.00000 0 22330902.804 -8158818.338 9214081.459 10 0 60475 64800.00000 0 23235937.509 -8480983.529 6186157.725 10 0 60475 65700.00000 0 23748356.645 -8767609.714 3037902.061 10 0 60475 66600.00000 0 23868700.446 -8962762.937 -169450.183 10 0 60475 67500.00000 0 23610676.051 -9012840.140 -3373505.692 10 0 60475 68400.00000 0 23000480.113 -8869069.663 -6511934.344 10 0 60475 69300.00000 0 22075613.606 -8489815.104 -9523689.161 10 0 60475 70200.00000 0 20883239.490 -7842583.793 -12350200.417 10 0 60475 71100.00000 0 19478153.223 -6905653.798 -14936519.865 10 0 60475 72000.00000 0 17920452.464 -5669249.663 -17232392.154 10 0 60475 72900.00000 0 16273004.808 -4136216.351 -19193232.324 10 0 60475 73800.00000 0 14598820.622 -2322162.228 -20780990.362 10 0 60475 74700.00000 0 12958441.671 -255064.367 -21964886.289 10 0 60475 75600.00000 0 11407455.112 2025647.864 -22722002.070 10 0 60475 76500.00000 0 9994236.694 4470493.194 -23037719.561 10 0 60475 77400.00000 0 8758017.006 7021764.855 -22905996.774 10 0 60475 78300.00000 0 7727350.747 9615707.467 -22329477.851 10 0 60475 79200.00000 0 6919051.822 12184954.398 -21319435.270 10 0 60475 80100.00000 0 6337637.547 14661124.825 -19895545.850 10 0 60475 81000.00000 0 5975303.818 16977473.267 -18085505.178 10 0 60475 81900.00000 0 5812430.986 19071482.155 -15924487.966 10 0 60475 82800.00000 0 5818598.009 20887290.355 -13454464.738 10 0 60475 83700.00000 0 5954061.279 22377857.314 -10723387.861 10 0 60475 84600.00000 0 6171635.109 23506773.437 -7784262.421 10 0 60475 85500.00000 0 6418894.080 24249641.850 -4694119.726 99